RH
100 100 96 94 71 100 90 54 62 84 99 99 100 100 78 50 39 27 19 11 8 7 6 6 5 4 4 5 4 5 5 6 7 15 38 82 100 100
99 100 72 96 100 100 64 69 90 100 74 98 93 77 53 39 31 19 10 7 7 6 5 5 4 4 4 4 4 4 5 6 6 10 37 80 100 100
99 70 63 100 100 78 62 74 97 86 93 100 86 56 40 28 19 11 8 7 6 6 5 5 5 4 3 3 3 4 5 5 6 10 33 98 100 100
100 71 100 100 84 54 74 94 69 99 73 54 49 41 34 22 13 9 8 7 5 5 5 4 4 2 2 2 2 3 5 5 6 10 28 98 97 86
81 100 100 100 63 69 87 78 70 68 62 60 40 28 22 15 11 8 8 6 4 4 4 3 2 2 2 3 2 3 4 5 6 10 20 76 98 100
70 100 100 80 70 78 79 69 73 61 68 60 31 20 13 10 8 7 8 6 5 4 3 2 2 2 2 3 3 3 3 5 6 9 15 38 76 100
100 100 100 72 63 89 62 68 61 80 71 36 24 14 10 9 7 7 6 6 5 3 3 2 2 2 2 2 3 3 3 4 6 8 14 21 55 100
100 98 99 79 79 63 71 67 64 76 64 24 17 10 9 7 7 6 5 4 4 2 3 2 2 2 2 2 3 3 3 4 6 8 16 29 72 100
100 88 75 100 67 70 77 64 61 56 47 19 14 10 9 7 7 6 5 4 3 2 2 2 2 2 2 2 3 3 3 4 6 8 14 29 58 100
75 98 100 78 70 72 97 50 67 53 30 16 11 9 8 7 7 6 4 3 2 2 2 2 2 2 2 2 3 3 3 4 7 8 13 19 69 100
100 96 85 68 76 87 52 74 72 46 28 15 9 8 8 7 7 6 4 3 3 3 2 2 2 2 2 3 3 3 4 4 7 10 14 23 89 100
80 79 81 81 92 55 67 55 59 37 26 12 9 8 7 7 7 5 4 3 2 3 2 2 2 2 2 3 4 4 4 5 8 12 14 28 95 100
92 96 88 95 49 52 60 57 47 33 17 11 10 8 8 7 7 5 4 3 3 3 2 2 2 2 2 3 4 4 4 6 8 12 18 34 73 100
98 94 95 60 53 60 63 55 46 19 13 10 10 9 9 8 7 6 3 3 3 3 3 3 2 2 3 4 4 4 5 6 8 12 21 63 78 100
78 79 72 66 50 67 60 50 29 18 10 10 10 9 9 8 7 6 4 3 3 3 3 3 3 3 3 4 4 5 5 7 8 13 30 39 96 100
89 61 68 61 63 63 70 36 26 16 10 10 10 8 8 8 8 7 5 4 3 3 3 3 3 3 4 5 5 6 6 7 9 13 20 54 88 100
89 85 75 63 68 64 38 24 18 12 10 10 10 8 8 8 8 7 6 5 5 4 4 4 4 4 4 5 5 6 7 8 10 12 18 58 100 100
92 88 75 77 61 42 29 20 17 12 11 10 10 9 8 9 8 8 6 6 6 5 4 4 4 5 5 6 7 7 8 9 11 15 26 78 100 100
82 71 68 41 31 30 22 19 12 12 10 10 10 9 9 9 9 9 7 7 7 8 6 6 6 6 5 7 7 8 8 11 14 16 20 75 100 84
66 74 63 38 24 20 17 12 13 11 10 10 10 9 9 10 9 10 8 8 7 9 9 8 8 6 7 7 8 8 8 9 14 20 26 58 61 84
60 61 33 26 22 17 14 12 13 11 10 11 10 9 9 10 10 10 9 9 8 8 13 10 11 11 10 9 9 10 10 10 10 18 48 41 40 65
66 40 30 24 18 13 10 12 13 11 11 11 10 10 10 10 11 11 11 8 10 9 12 16 16 17 15 16 13 13 11 15 15 15 42 93 96 94
39 26 21 18 16 11 11 12 13 12 11 10 10 11 10 10 11 12 12 10 8 11 12 17 19 21 23 23 24 22 23 22 16 17 25 48 58 99
Wind_Speed
68 75 81 89 97 91 103 110 110 109 110 117 130 137 147 146 140 132 121 108 94 83 76 73 69 66 59 61 60 62 65 69 72 77 85 90 93 85
73 77 86 94 91 99 109 112 117 121 123 127 134 145 147 139 136 123 108 95 84 77 70 66 64 61 51 55 54 55 61 66 71 76 94 103 94 102
76 85 92 88 94 104 114 116 124 131 133 129 143 141 137 135 128 112 99 87 78 73 66 60 59 53 46 50 47 50 57 62 70 77 98 102 102 107
81 90 93 91 105 116 115 120 128 130 139 137 132 137 139 134 120 101 89 83 75 68 61 56 54 48 44 45 42 46 53 58 68 79 102 113 111 104
88 90 96 96 112 116 118 126 131 137 140 142 137 138 136 126 107 94 85 80 72 62 57 52 50 45 41 41 41 43 49 55 66 82 101 111 107 106
92 93 94 110 115 118 122 133 134 140 144 145 141 139 127 115 99 82 79 77 70 62 55 49 45 43 37 36 38 41 47 54 64 82 97 109 111 104
90 97 103 114 118 123 130 135 144 148 155 141 138 132 118 105 92 82 75 69 66 56 52 47 42 38 33 32 35 38 44 51 63 78 92 102 107 104
95 102 110 121 124 133 135 144 148 150 153 141 135 122 109 97 86 78 72 64 60 52 47 41 36 30 30 29 33 37 41 50 59 73 90 101 108 107
101 110 118 119 127 134 137 147 152 155 149 139 127 116 101 91 83 76 69 60 53 46 42 34 32 27 28 25 31 35 39 47 55 73 89 102 109 109
112 112 117 125 129 134 138 148 152 147 144 136 121 108 96 87 79 70 61 56 47 40 37 30 28 24 24 23 27 33 38 46 54 67 84 91 103 107
112 119 125 129 133 137 148 150 152 147 142 129 114 102 91 83 73 66 57 50 42 37 34 25 25 22 20 20 25 32 38 46 57 67 77 82 97 106
118 123 126 132 135 146 149 146 149 143 134 120 109 98 88 78 68 59 52 45 36 33 28 22 21 19 16 19 26 32 38 45 58 70 78 84 96 104
120 124 130 132 142 150 151 145 145 139 123 111 100 91 84 75 65 56 47 40 32 28 22 21 19 16 16 18 25 32 38 48 60 70 80 92 100 104
125 127 132 141 148 149 151 152 145 131 115 103 91 85 79 70 61 52 44 35 29 22 19 18 16 14 14 17 23 30 38 46 57 68 83 94 97 105
132 135 141 144 149 154 153 150 135 123 107 96 86 79 74 65 56 48 40 32 24 20 16 15 14 11 13 17 23 28 36 45 54 68 83 92 102 103
134 143 145 148 151 151 156 145 130 116 102 91 82 74 69 61 52 44 35 31 24 17 14 12 11 11 13 18 23 28 33 40 48 62 77 91 98 103
135 139 145 155 157 160 141 129 121 108 96 86 78 72 64 56 48 40 32 27 23 19 15 10 10 12 14 16 22 27 32 36 44 59 74 92 104 103
138 143 154 156 153 139 129 125 110 101 90 80 75 69 59 51 44 38 29 24 20 15 12 10 9 11 15 18 22 26 29 34 41 56 75 95 104 106
145 150 153 149 132 131 128 111 101 92 83 76 71 64 54 47 40 35 27 21 18 14 11 9 9 10 13 19 23 28 31 36 40 50 71 96 103 103
150 153 152 138 140 129 114 102 93 86 78 73 67 59 50 44 37 32 24 21 16 12 10 8 9 10 13 17 22 27 32 36 42 48 63 85 91 100
156 155 139 140 131 118 104 94 86 80 74 69 62 55 47 40 36 31 25 19 16 12 9 9 9 10 12 16 18 23 28 33 39 44 55 62 70 89
157 141 136 130 120 107 95 85 81 76 71 65 58 52 45 38 34 29 26 19 14 13 10 8 9 10 12 15 19 21 25 30 34 38 51 67 77 85
133 135 129 121 109 99 89 82 78 74 67 60 53 49 43 37 33 29 26 22 16 12 12 11 10 10 12 14 17 19 21 24 29 38 45 55 63 84
Wind_Direction
305 302 306 308 311 309 316 321 319 315 315 313 315 316 316 315 315 315 314 312 307 302 299 294 289 282 277 269 259 249 241 233 228 222 210 206 209 213
302 304 309 308 310 312 319 319 318 316 319 316 317 317 317 318 317 317 316 312 308 304 300 295 289 284 277 266 257 246 237 229 222 215 202 200 209 214
304 310 312 311 311 317 321 320 320 320 321 323 318 319 319 320 320 318 315 312 309 306 301 295 289 283 276 267 255 242 235 226 217 210 201 200 207 211
308 313 311 311 318 321 321 322 323 323 322 323 323 319 318 320 321 318 315 312 310 307 301 295 288 284 275 266 254 239 231 223 213 207 203 200 206 206
313 311 311 311 318 321 319 322 326 326 324 321 321 319 320 320 319 318 318 315 311 307 301 296 290 283 275 264 252 238 229 220 212 206 206 202 204 204
313 310 309 317 320 320 320 323 324 326 325 321 319 321 322 321 320 319 318 315 310 307 303 297 289 281 273 261 249 236 225 217 210 206 208 204 203 203
309 309 312 315 318 318 320 323 325 325 325 320 321 323 324 322 321 321 319 315 309 307 302 295 288 282 270 257 244 234 223 215 210 205 205 208 202 201
309 310 312 317 319 320 323 324 326 325 326 322 323 326 325 323 323 322 319 315 310 307 298 293 287 279 268 254 240 231 221 214 209 202 201 204 201 198
309 313 313 317 317 322 323 325 326 324 324 323 326 326 324 324 325 323 320 315 310 305 298 295 284 273 262 251 237 229 217 212 205 201 201 201 202 198
312 311 316 317 318 320 323 324 324 322 322 324 326 325 324 325 324 323 319 315 311 306 300 296 283 269 258 247 231 221 213 206 201 201 201 202 200 199
311 310 313 316 319 321 323 323 324 322 323 325 326 325 325 325 324 324 320 316 312 305 301 297 283 267 254 238 222 216 210 203 197 196 198 197 198 199
309 310 314 317 318 320 322 323 323 324 324 325 326 325 327 326 325 324 320 316 311 305 307 295 281 266 246 227 213 209 204 200 196 193 194 194 197 200
308 313 316 316 318 319 322 322 322 322 323 325 325 325 326 325 327 325 320 316 313 309 307 292 282 263 241 224 209 204 200 196 197 193 193 195 196 199
312 315 314 317 319 321 322 322 322 322 324 325 324 325 324 325 327 324 321 317 312 308 302 288 274 252 234 221 210 203 201 200 199 196 194 195 199 198
312 312 314 315 317 320 321 321 322 322 323 324 324 324 323 324 326 325 322 320 315 310 300 283 267 244 228 215 205 203 201 200 200 199 198 199 198 202
312 312 313 315 318 320 321 320 320 320 322 322 323 323 322 323 325 324 323 322 320 312 300 284 263 236 218 209 202 200 203 203 199 199 201 202 200 203
311 311 313 316 317 318 318 319 320 319 320 321 322 322 320 321 322 323 322 322 320 313 298 278 255 230 215 207 203 199 199 202 202 202 202 200 202 206
307 310 313 315 317 316 317 318 317 317 318 320 321 320 319 318 320 322 320 320 316 303 292 279 251 225 214 205 200 200 200 201 202 200 201 201 203 209
309 311 314 316 315 315 316 315 315 316 317 320 318 318 317 317 317 319 316 316 312 299 287 270 253 231 216 211 207 203 201 200 204 205 205 203 208 212
307 310 313 312 313 314 314 313 313 314 316 317 314 314 315 314 314 316 313 309 305 294 280 263 252 229 217 218 212 209 207 202 200 208 209 208 212 213
306 309 309 310 310 313 312 312 312 313 315 314 312 312 311 311 310 312 308 302 297 291 275 251 250 230 217 214 216 215 211 210 208 202 211 219 219 217
305 306 309 309 310 309 309 310 311 312 312 311 310 309 308 308 305 307 304 296 288 280 261 242 242 236 216 211 208 209 208 208 212 213 209 215 222 222
304 305 307 309 308 308 308 310 310 310 310 309 307 306 305 303 301 301 299 293 283 269 259 235 234 239 227 218 211 208 213 216 210 207 211 217 218 222